Weather History for KHLC - February, 2014

Change the Weather History Date:

Monday, February 3, 2014

  Actual Average Record
Temperature  
Mean Temperature 20 °F 30 °F  
Max Temperature 33 °F 43 °F 75 °F (1909)
Min Temperature 6 °F 18 °F -13 °F (1989)
Degree Days  
Heating Degree Days 45    
Moisture  
Dew Point 13 °F    
Average Humidity 65    
Maximum Humidity 80    
Minimum Humidity 55    
Precipitation  
Precipitation 0.00 in 0.01 in 0.58 in (2012)
Month to date precipitation 0.00 0.05  
Year to date precipitation 0.10 0.50  
Sea Level Pressure  
Sea Level Pressure 30.13 in    
Wind  
Wind Speed 6 mph (SE)    
Max Wind Speed 18 mph    
Max Gust Speed 30 mph    
Visibility 10 miles    
Events      
T = Trace of Precipitation, MM = Missing Value Source: NWS Daily Summary

Daily Weather History Graph

Daily Weather History Graph

Search for Another Location

Airport or City:

Trip Planner

Search our weather history database for the weather conditions in past years. The results will help you decide how hot, cold, wet, or windy it might be!

Date:

Astronomy

Feb. 03, 2014 Rise Set
Actual Time 7:44 AM CST 6:02 PM CST
Civil Twilight 7:16 AM CST 6:30 PM CST
Nautical Twilight 6:44 AM CST 7:02 PM CST
Astronomical Twilight 6:12 AM CST 7:33 PM CST
Moon 9:49 AM CST (2/3) 10:52 PM CST (2/3)
Length of Visible Light 11h 14m
Length of Day
10h 17m
Waxing Crescent, 20% of the Moon is Illuminated
Feb 3
Waxing Crescent
Feb 6
First Quarter
Feb 14
Full
Feb 22
Last Quarter
Mar 1
New

Hourly Weather History & Observations

Time (CST) Temp. Windchill Dew Point Humidity Pressure Visibility Wind Dir Wind Speed Gust Speed Precip Events Conditions
12:53 AM 16.0 °F - 7.0 °F 68% 30.25 in 10.0 mi Calm Calm - N/A   Clear
1:53 AM 15.1 °F - 6.1 °F 68% 30.23 in 10.0 mi Calm Calm - N/A   Clear
2:53 AM 12.9 °F - 6.1 °F 74% 30.22 in 10.0 mi Calm Calm - N/A   Clear
3:53 AM 12.0 °F 5.9 °F 5.0 °F 73% 30.20 in 10.0 mi ESE 3.5 mph - N/A   Clear
4:53 AM 7.0 °F 0.1 °F 1.9 °F 80% 30.21 in 10.0 mi ESE 3.5 mph - N/A   Clear
5:53 AM 12.0 °F 4.1 °F 5.0 °F 73% 30.19 in 10.0 mi East 4.6 mph - N/A   Clear
6:53 AM 12.0 °F 2.7 °F 6.1 °F 77% 30.19 in 10.0 mi East 5.8 mph - N/A   Clear
7:53 AM 12.9 °F 2.6 °F 6.1 °F 74% 30.20 in 10.0 mi East 6.9 mph - N/A   Clear
8:53 AM 17.1 °F 8.7 °F 9.0 °F 71% 30.21 in 10.0 mi East 5.8 mph - N/A   Overcast
9:53 AM 21.9 °F 11.7 °F 10.9 °F 63% 30.20 in 10.0 mi SSE 9.2 mph - N/A   Overcast
10:53 AM 26.1 °F 15.6 °F 12.0 °F 55% 30.19 in 10.0 mi South 11.5 mph - N/A   Overcast
11:53 AM 30.0 °F 19.1 °F 17.1 °F 59% 30.14 in 10.0 mi SSE 15.0 mph - N/A   Overcast
12:34 PM 32.0 °F 21.2 °F 19.9 °F 61% 30.04 in 10.0 mi SSE 16.1 mph - N/A   Overcast
12:53 PM 33.1 °F 22.2 °F 19.9 °F 59% 30.10 in 10.0 mi SSE 17.3 mph 24.2 mph N/A   Mostly Cloudy
1:05 PM 33.1 °F 21.9 °F 19.9 °F 59% 30.01 in 10.0 mi SSE 18.4 mph 29.9 mph N/A   Mostly Cloudy
1:44 PM 30.9 °F 20.2 °F 18.0 °F 59% 30.00 in 10.0 mi SSE 15.0 mph 21.9 mph N/A   Overcast
1:53 PM 30.9 °F 21.7 °F 18.0 °F 59% 30.09 in 10.0 mi SSE 11.5 mph - N/A   Overcast
2:53 PM 30.0 °F 19.1 °F 18.0 °F 61% 30.09 in 10.0 mi SSE 15.0 mph - N/A   Overcast
3:23 PM 30.0 °F 19.5 °F 18.0 °F 61% 30.00 in 10.0 mi SSE 13.8 mph - N/A   Overcast
3:53 PM 30.0 °F 22.4 °F 17.1 °F 59% 30.09 in 10.0 mi SSE 8.1 mph - N/A   Overcast
4:53 PM 28.9 °F 19.8 °F 17.1 °F 61% 30.11 in 10.0 mi SE 10.4 mph - N/A   Overcast
5:14 PM 28.9 °F 21.1 °F 16.0 °F 58% 30.01 in 10.0 mi ESE 8.1 mph - N/A   Overcast
5:53 PM 28.9 °F 21.9 °F 16.0 °F 58% 30.11 in 10.0 mi ESE 6.9 mph - N/A   Overcast
6:53 PM 28.0 °F 19.3 °F 17.1 °F 63% 30.12 in 10.0 mi East 9.2 mph - N/A   Overcast
7:53 PM 27.0 °F 18.0 °F 15.1 °F 61% 30.13 in 10.0 mi East 9.2 mph - N/A   Overcast
8:53 PM 27.0 °F 18.7 °F 15.1 °F 61% 30.14 in 10.0 mi East 8.1 mph - N/A   Overcast
9:53 PM 26.1 °F 16.8 °F 16.0 °F 66% 30.14 in 10.0 mi East 9.2 mph - N/A   Overcast
10:53 PM 25.0 °F 15.5 °F 17.1 °F 72% 30.14 in 10.0 mi East 9.2 mph - N/A   Overcast
11:53 PM 25.0 °F 16.3 °F 18.0 °F 75% 30.13 in 10.0 mi ENE 8.1 mph - N/A   Overcast